CAL5872 WSSS-RCTP

Flight info

Callsign CAL5872
Flight time 4h 4m
Altitude 36000
Route TOMAN5B TOMAN L625 AKMON/K0882F390 L625 ANOKI/N0474F390 L625 AVMUP/N0475F400 L625 ABVAR/N0472F390 M646 POTIB Q14 TNN TNN1A
Aircraft B77L/H-SDE1E2E3FGHIJ1J2J3J5M1P2RWY/LB1D1

Departure

Time 2026-05-04 08:02
Airport Singapore Changi Airport (WSSS)

Arrival

Time 2026-05-04 12:06
Airport Taiwan Taoyuan International Airport (RCTP)
Time Latitude Longitude Altitude Speed Heading
2026-05-04 07:41 1.37191 103.99725 35 ft 0 kts 292°
2026-05-04 07:49 1.37183 103.99741 35 ft 4 kts 304°
2026-05-04 07:50 1.37180 103.99747 35 ft 0 kts 309°
2026-05-04 07:50 1.37168 103.99760 35 ft 4 kts 312°
2026-05-04 07:50 1.37156 103.99778 34 ft 3 kts 291°
2026-05-04 07:50 1.37154 103.99798 33 ft 4 kts 227°
2026-05-04 07:51 1.37174 103.99811 35 ft 4 kts 203°
2026-05-04 07:51 1.37193 103.99819 35 ft 0 kts 203°
2026-05-04 07:54 1.37126 103.99790 35 ft 7 kts 203°
2026-05-04 07:55 1.37071 103.99767 35 ft 10 kts 203°
2026-05-04 07:55 1.37001 103.99737 35 ft 12 kts 202°
2026-05-04 07:55 1.36918 103.99702 35 ft 14 kts 202°
2026-05-04 07:55 1.36821 103.99662 35 ft 16 kts 203°
2026-05-04 07:56 1.36722 103.99620 35 ft 10 kts 202°
2026-05-04 07:56 1.36676 103.99641 35 ft 9 kts 123°
2026-05-04 07:56 1.36648 103.99703 35 ft 11 kts 113°
2026-05-04 07:56 1.36615 103.99779 35 ft 13 kts 113°
2026-05-04 07:57 1.36574 103.99843 35 ft 9 kts 152°
2026-05-04 07:57 1.36509 103.99832 35 ft 11 kts 204°
2026-05-04 07:57 1.36442 103.99804 35 ft 8 kts 202°
2026-05-04 07:57 1.36396 103.99820 35 ft 8 kts 126°
2026-05-04 07:58 1.36359 103.99870 35 ft 10 kts 150°
2026-05-04 07:58 1.36285 103.99882 35 ft 12 kts 173°
2026-05-04 07:58 1.36204 103.99892 35 ft 9 kts 174°
2026-05-04 07:58 1.36171 103.99886 35 ft 1 kts 201°
2026-05-04 07:59 1.36166 103.99884 35 ft 0 kts 202°
2026-05-04 08:00 1.36123 103.99866 35 ft 23 kts 202°
2026-05-04 08:00 1.35733 103.99702 35 ft 100 kts 202°
2026-05-04 08:02 1.26985 103.95989 3136 ft 260 kts 203°
2026-05-04 08:02 1.25271 103.95316 3906 ft 268 kts 202°
2026-05-04 08:02 1.23455 103.94862 4661 ft 276 kts 180°
2026-05-04 08:03 1.21585 103.95295 5527 ft 280 kts 152°
2026-05-04 08:03 1.20112 103.96556 6464 ft 282 kts 124°
2026-05-04 08:03 1.19398 103.98367 7310 ft 285 kts 96°
2026-05-04 08:03 1.19421 104.00352 8039 ft 289 kts 85°
2026-05-04 08:04 1.19602 104.02378 8835 ft 295 kts 84°
2026-05-04 08:04 1.19809 104.04422 9743 ft 297 kts 84°
2026-05-04 08:04 1.20025 104.06491 10478 ft 304 kts 84°
2026-05-04 08:04 1.20257 104.08674 10785 ft 330 kts 84°
2026-05-04 08:05 1.20501 104.11050 10985 ft 356 kts 84°
2026-05-04 08:05 1.20750 104.13553 11647 ft 367 kts 84°
2026-05-04 08:05 1.20995 104.16119 12557 ft 373 kts 84°
2026-05-04 08:05 1.21241 104.18706 13605 ft 375 kts 84°
2026-05-04 08:06 1.21489 104.21310 14503 ft 378 kts 84°
2026-05-04 08:06 1.21737 104.23944 15335 ft 384 kts 85°
2026-05-04 08:06 1.21986 104.26596 16142 ft 389 kts 85°
2026-05-04 08:06 1.22242 104.29308 17001 ft 392 kts 85°
2026-05-04 08:08 1.24098 104.48943 21760 ft 422 kts 85°
2026-05-04 08:08 1.24375 104.51881 22383 ft 427 kts 85°
2026-05-04 08:10 1.26676 104.76298 26462 ft 456 kts 85°
2026-05-04 08:11 1.26973 104.79443 26949 ft 459 kts 85°
2026-05-04 08:11 1.27575 104.85841 27915 ft 466 kts 85°
2026-05-04 08:11 1.27878 104.89078 28365 ft 470 kts 85°
2026-05-04 08:12 1.28188 104.92384 28823 ft 473 kts 85°
2026-05-04 08:12 1.28492 104.95621 29247 ft 477 kts 85°
2026-05-04 08:12 1.28804 104.98935 29688 ft 481 kts 85°
2026-05-04 08:12 1.29118 105.02274 30076 ft 484 kts 85°
2026-05-04 08:13 1.29438 105.05680 30441 ft 486 kts 85°
2026-05-04 08:13 1.29749 105.09001 30832 ft 487 kts 85°
2026-05-04 08:13 1.30057 105.12270 31318 ft 486 kts 85°
2026-05-04 08:13 1.30365 105.15518 31848 ft 484 kts 85°
2026-05-04 08:14 1.30678 105.18851 32418 ft 482 kts 85°
2026-05-04 08:14 1.30990 105.22176 32961 ft 480 kts 85°
2026-05-04 08:14 1.31301 105.25502 33495 ft 479 kts 85°
2026-05-04 08:16 1.33461 105.48473 35865 ft 476 kts 85°
2026-05-04 08:16 1.34094 105.55013 35843 ft 469 kts 85°
2026-05-04 08:17 1.34701 105.61498 35846 ft 468 kts 85°
2026-05-04 08:17 1.35298 105.67963 35857 ft 468 kts 85°
2026-05-04 08:19 1.47871 105.84948 35856 ft 480 kts 27°
2026-05-04 08:19 1.50867 105.86421 35857 ft 482 kts 28°
2026-05-04 08:20 1.56872 105.89439 35863 ft 484 kts 28°
2026-05-04 08:20 1.62877 105.92530 35856 ft 486 kts 29°
2026-05-04 08:21 1.68883 105.95644 35852 ft 486 kts 29°
2026-05-04 08:21 1.74873 105.98747 35848 ft 484 kts 29°
2026-05-04 08:22 1.80807 106.01817 35853 ft 483 kts 29°
2026-05-04 08:24 2.03596 106.13609 35853 ft 480 kts 29°
2026-05-04 08:24 2.09519 106.16674 35854 ft 480 kts 29°
2026-05-04 08:25 2.16409 106.20242 35853 ft 480 kts 29°
2026-05-04 08:25 2.21384 106.22818 35853 ft 481 kts 29°
2026-05-04 08:27 2.45143 106.35123 35854 ft 482 kts 29°
2026-05-04 08:28 2.51102 106.38213 35853 ft 483 kts 29°
2026-05-04 08:28 2.57074 106.41307 35852 ft 483 kts 29°
2026-05-04 08:29 2.63041 106.44401 35855 ft 483 kts 29°
2026-05-04 08:31 2.86930 106.56751 35852 ft 483 kts 29°
2026-05-04 08:33 3.10771 106.69102 35851 ft 482 kts 28°
2026-05-04 08:35 3.34562 106.81430 35851 ft 481 kts 28°
2026-05-04 08:35 3.40506 106.84510 35852 ft 482 kts 28°
2026-05-04 08:37 3.60919 106.95886 35855 ft 480 kts 37°
2026-05-04 08:38 3.66387 106.99803 35852 ft 480 kts 37°
2026-05-04 08:38 3.71785 107.03660 35857 ft 480 kts 37°
2026-05-04 08:40 3.93637 107.19103 35851 ft 480 kts 36°
2026-05-04 08:41 3.99098 107.22961 35853 ft 480 kts 36°
2026-05-04 08:41 4.04492 107.26774 35853 ft 480 kts 36°
2026-05-04 08:42 4.09932 107.30619 35852 ft 481 kts 36°
2026-05-04 08:42 4.15392 107.34479 35851 ft 481 kts 36°
2026-05-04 08:43 4.20851 107.38339 35850 ft 480 kts 36°
2026-05-04 08:43 4.26312 107.42202 35853 ft 480 kts 36°
2026-05-04 08:44 4.31768 107.46062 35853 ft 480 kts 36°
2026-05-04 08:46 4.53590 107.61505 35850 ft 480 kts 36°
2026-05-04 08:46 4.59046 107.65367 35852 ft 479 kts 36°
2026-05-04 08:47 4.64490 107.69222 35849 ft 479 kts 36°
2026-05-04 08:47 4.69929 107.73075 35852 ft 479 kts 36°
2026-05-04 08:48 4.75375 107.76935 35851 ft 479 kts 36°
2026-05-04 08:48 4.80810 107.80785 35857 ft 478 kts 36°
2026-05-04 08:49 4.86245 107.84636 35858 ft 478 kts 36°
2026-05-04 08:50 5.05335 107.98138 36276 ft 486 kts 36°
2026-05-04 08:51 5.08100 108.00076 36778 ft 482 kts 36°
2026-05-04 08:51 5.10835 108.01992 37301 ft 479 kts 36°
2026-05-04 08:51 5.13557 108.03899 37788 ft 476 kts 36°
2026-05-04 08:51 5.16268 108.05801 38207 ft 474 kts 36°
2026-05-04 08:52 5.18964 108.07694 38578 ft 473 kts 37°
2026-05-04 08:52 5.21664 108.09591 38813 ft 475 kts 36°
2026-05-04 08:52 5.27068 108.13399 38849 ft 477 kts 36°
2026-05-04 08:54 5.48450 108.28425 38860 ft 467 kts 37°
2026-05-04 08:55 5.53779 108.32175 38855 ft 468 kts 36°
2026-05-04 08:55 5.59044 108.35880 38856 ft 469 kts 36°
2026-05-04 09:01 6.15181 108.75443 38857 ft 468 kts 37°
2026-05-04 09:01 6.20492 108.79192 38847 ft 464 kts 37°
2026-05-04 09:02 6.25756 108.82886 38856 ft 460 kts 37°
2026-05-04 09:02 6.31009 108.86600 38867 ft 462 kts 37°
2026-05-04 09:03 6.36253 108.90314 38860 ft 462 kts 37°
2026-05-04 09:03 6.41523 108.94036 38844 ft 464 kts 36°
2026-05-04 09:04 6.46808 108.97760 38866 ft 465 kts 36°
2026-05-04 09:04 6.51921 109.01361 38843 ft 460 kts 37°
2026-05-04 09:05 6.56707 109.04753 38845 ft 453 kts 37°
2026-05-04 09:05 6.61546 109.08189 38853 ft 452 kts 37°
2026-05-04 09:06 6.66685 109.11835 38853 ft 453 kts 36°
2026-05-04 09:08 6.87385 109.26472 38857 ft 457 kts 36°
2026-05-04 09:08 6.92587 109.30157 38860 ft 458 kts 36°
2026-05-04 09:09 6.97803 109.33851 38856 ft 459 kts 36°
2026-05-04 09:09 7.02149 109.36929 38858 ft 459 kts 36°
2026-05-04 09:10 7.08261 109.41261 38856 ft 460 kts 36°
2026-05-04 09:10 7.12610 109.44344 38858 ft 460 kts 36°
2026-05-04 09:11 7.17844 109.48057 38853 ft 460 kts 36°
2026-05-04 09:11 7.23077 109.51769 38855 ft 460 kts 36°
2026-05-04 09:12 7.28302 109.55476 38857 ft 460 kts 36°
2026-05-04 09:14 7.49196 109.70312 38856 ft 459 kts 36°
2026-05-04 09:14 7.54410 109.74017 38857 ft 459 kts 36°
2026-05-04 09:15 7.59592 109.77701 38857 ft 459 kts 36°
2026-05-04 09:15 7.64839 109.81432 38852 ft 459 kts 36°
2026-05-04 09:17 7.88265 109.98103 38854 ft 459 kts 36°
2026-05-04 09:18 7.93485 110.01821 38853 ft 459 kts 36°
2026-05-04 09:18 7.98707 110.05541 38871 ft 460 kts 36°
2026-05-04 09:19 8.03932 110.09266 38875 ft 460 kts 36°
2026-05-04 09:19 8.09164 110.12996 38859 ft 460 kts 36°
2026-05-04 09:20 8.14391 110.16726 38863 ft 461 kts 36°
2026-05-04 09:20 8.19632 110.20465 38858 ft 461 kts 36°
2026-05-04 09:21 8.24876 110.24217 38872 ft 463 kts 36°
2026-05-04 09:21 8.30124 110.27997 38861 ft 464 kts 36°
2026-05-04 09:22 8.35398 110.31796 38875 ft 466 kts 36°
2026-05-04 09:22 8.40676 110.35603 38881 ft 467 kts 36°
2026-05-04 09:23 8.45962 110.39420 38863 ft 466 kts 36°
2026-05-04 09:23 8.51253 110.43226 38884 ft 468 kts 36°
2026-05-04 09:25 8.72424 110.58512 38880 ft 467 kts 36°
2026-05-04 09:26 8.77662 110.62283 38879 ft 465 kts 36°
2026-05-04 09:26 8.82947 110.66107 38880 ft 464 kts 36°
2026-05-04 09:27 8.88172 110.69885 38883 ft 464 kts 36°
2026-05-04 09:27 8.93430 110.73688 38885 ft 465 kts 36°
2026-05-04 09:28 8.98691 110.77494 38885 ft 466 kts 36°
2026-05-04 09:28 9.03970 110.81314 38885 ft 466 kts 36°
2026-05-04 09:29 9.09247 110.85133 38889 ft 467 kts 36°
2026-05-04 09:29 9.14531 110.88960 38887 ft 467 kts 36°
2026-05-04 09:30 9.19816 110.92789 38890 ft 467 kts 36°
2026-05-04 09:30 9.25100 110.96618 38875 ft 467 kts 36°
2026-05-04 09:31 9.30390 111.00453 38873 ft 468 kts 36°
2026-05-04 09:31 9.35681 111.04291 38874 ft 468 kts 36°
2026-05-04 09:32 9.40981 111.08134 38873 ft 468 kts 36°
2026-05-04 09:34 9.62174 111.23530 38874 ft 471 kts 36°
2026-05-04 09:34 9.67490 111.27387 38894 ft 468 kts 36°
2026-05-04 09:35 9.72783 111.31233 38879 ft 467 kts 36°
2026-05-04 09:35 9.78049 111.35087 38893 ft 467 kts 36°
2026-05-04 09:37 9.99134 111.50466 38896 ft 467 kts 36°
2026-05-04 09:38 10.04422 111.54316 38879 ft 469 kts 36°
2026-05-04 09:38 10.09744 111.58189 38874 ft 471 kts 36°
2026-05-04 09:39 10.15070 111.62081 38884 ft 473 kts 36°
2026-05-04 09:39 10.20410 111.65980 38899 ft 473 kts 36°
2026-05-04 09:40 10.25748 111.69880 38894 ft 473 kts 36°
2026-05-04 09:40 10.31082 111.73780 38883 ft 472 kts 36°
2026-05-04 09:42 10.52368 111.89360 38887 ft 474 kts 36°
2026-05-04 09:43 10.57720 111.93281 38880 ft 476 kts 36°
2026-05-04 09:43 10.63082 111.97211 38882 ft 477 kts 36°
2026-05-04 09:44 10.68469 112.01162 38898 ft 477 kts 36°
2026-05-04 09:46 10.89971 112.16948 38881 ft 473 kts 36°
2026-05-04 09:46 10.95260 112.20836 38875 ft 466 kts 36°
2026-05-04 09:47 11.00505 112.24667 38880 ft 463 kts 35°
2026-05-04 09:49 11.21479 112.39975 38887 ft 466 kts 36°
2026-05-04 09:51 11.39925 112.53465 38885 ft 468 kts 36°
2026-05-04 09:51 11.45192 112.57332 38887 ft 466 kts 36°
2026-05-04 09:52 11.50463 112.61195 38897 ft 467 kts 36°
2026-05-04 09:52 11.55733 112.65079 38908 ft 468 kts 36°
2026-05-04 09:53 11.61022 112.68980 38900 ft 470 kts 36°
2026-05-04 09:53 11.66333 112.72892 38896 ft 471 kts 36°
2026-05-04 09:54 11.71638 112.76815 38882 ft 471 kts 36°
2026-05-04 09:54 11.76961 112.80748 38899 ft 475 kts 37°
2026-05-04 09:55 11.82378 112.84752 38906 ft 486 kts 36°
2026-05-04 09:55 11.87866 112.88808 38901 ft 488 kts 35°
2026-05-04 09:56 11.93363 112.92872 38887 ft 488 kts 35°
2026-05-04 09:56 11.98851 112.96932 38885 ft 487 kts 35°
2026-05-04 09:57 12.03408 113.00305 38900 ft 485 kts 35°
2026-05-04 09:57 12.09740 113.05004 38902 ft 483 kts 35°
2026-05-04 09:58 12.14295 113.08373 38911 ft 481 kts 36°
2026-05-04 09:58 12.19703 113.12382 38888 ft 479 kts 35°
2026-05-04 10:00 12.41261 113.28377 38912 ft 482 kts 34°
2026-05-04 10:04 12.79561 113.56825 38897 ft 490 kts 34°
2026-05-04 10:04 12.85066 113.60926 38897 ft 489 kts 35°
2026-05-04 10:05 12.90553 113.65014 38900 ft 487 kts 34°
2026-05-04 10:05 12.96032 113.69097 38900 ft 486 kts 34°
2026-05-04 10:06 13.01493 113.73169 38916 ft 485 kts 34°
2026-05-04 10:06 13.06950 113.77241 38905 ft 485 kts 34°
2026-05-04 10:08 13.26079 113.91531 38921 ft 488 kts 35°
2026-05-04 10:08 13.31562 113.95633 38920 ft 488 kts 35°
2026-05-04 10:09 13.37023 113.99721 38911 ft 489 kts 35°
2026-05-04 10:09 13.42558 114.03865 38905 ft 490 kts 35°
2026-05-04 10:10 13.48015 114.07955 38904 ft 490 kts 35°
2026-05-04 10:10 13.53518 114.12081 38909 ft 490 kts 35°
2026-05-04 10:11 13.59024 114.16212 38924 ft 490 kts 35°
2026-05-04 10:11 13.64535 114.20349 38923 ft 490 kts 35°
2026-05-04 10:12 13.70031 114.24477 38930 ft 489 kts 35°
2026-05-04 10:12 13.75519 114.28602 38909 ft 488 kts 35°
2026-05-04 10:13 13.80989 114.32716 38913 ft 486 kts 35°
2026-05-04 10:13 13.86440 114.36819 38908 ft 485 kts 35°
2026-05-04 10:14 13.91871 114.40909 38928 ft 484 kts 34°
2026-05-04 10:16 14.08884 114.57570 38909 ft 484 kts 45°
2026-05-04 10:16 14.11184 114.60099 38914 ft 484 kts 45°
2026-05-04 10:16 14.15798 114.65148 38908 ft 484 kts 45°
2026-05-04 10:17 14.20429 114.70198 38913 ft 485 kts 45°
2026-05-04 10:19 14.39028 114.90516 38915 ft 493 kts 46°
2026-05-04 10:19 14.43771 114.95708 38917 ft 495 kts 46°
2026-05-04 10:20 14.48468 115.00852 38929 ft 497 kts 46°
2026-05-04 10:20 14.53207 115.06046 38909 ft 496 kts 45°
2026-05-04 10:21 14.57927 115.11222 38917 ft 494 kts 45°
2026-05-04 10:21 14.62623 115.16376 38910 ft 491 kts 45°
2026-05-04 10:22 14.69617 115.24058 38912 ft 487 kts 45°
2026-05-04 10:23 14.74250 115.29150 38917 ft 486 kts 45°
2026-05-04 10:25 14.92722 115.49497 38917 ft 484 kts 45°
2026-05-04 10:25 14.97340 115.54588 38916 ft 486 kts 45°
2026-05-04 10:26 15.01970 115.59686 38937 ft 487 kts 45°
2026-05-04 10:26 15.06611 115.64804 38920 ft 488 kts 45°
2026-05-04 10:27 15.11264 115.69958 38913 ft 492 kts 46°
2026-05-04 10:27 15.15928 115.75125 38916 ft 492 kts 46°
2026-05-04 10:28 15.20615 115.80308 38926 ft 493 kts 46°
2026-05-04 10:28 15.25309 115.85506 38924 ft 494 kts 46°
2026-05-04 10:29 15.29977 115.90678 38926 ft 495 kts 46°
2026-05-04 10:29 15.34683 115.95896 38925 ft 496 kts 46°
2026-05-04 10:30 15.39384 116.01108 38920 ft 494 kts 46°
2026-05-04 10:30 15.44063 116.06309 38920 ft 495 kts 46°
2026-05-04 10:31 15.48760 116.11531 38928 ft 495 kts 46°
2026-05-04 10:32 15.65235 116.29871 38928 ft 497 kts 46°
2026-05-04 10:33 15.69939 116.35116 38923 ft 496 kts 46°
2026-05-04 10:33 15.74642 116.40365 38921 ft 497 kts 46°
2026-05-04 10:34 15.79345 116.45616 38924 ft 496 kts 46°
2026-05-04 10:34 15.84018 116.50836 38924 ft 496 kts 46°
2026-05-04 10:35 15.88722 116.56097 38926 ft 496 kts 46°
2026-05-04 10:35 15.93415 116.61350 38924 ft 496 kts 46°
2026-05-04 10:36 15.98108 116.66606 38926 ft 496 kts 46°
2026-05-04 10:36 16.02764 116.71825 38923 ft 496 kts 46°
2026-05-04 10:37 16.07452 116.77082 38926 ft 495 kts 46°
2026-05-04 10:37 16.12129 116.82332 38928 ft 495 kts 46°
2026-05-04 10:39 16.28493 117.00731 38924 ft 496 kts 46°
2026-05-04 10:40 16.33166 117.05994 38928 ft 497 kts 46°
2026-05-04 10:40 16.37864 117.11291 38924 ft 498 kts 46°
2026-05-04 10:41 16.42561 117.16590 38924 ft 498 kts 46°
2026-05-04 10:41 16.47265 117.21899 38923 ft 498 kts 46°
2026-05-04 10:42 16.51966 117.27210 38935 ft 499 kts 46°
2026-05-04 10:42 16.56675 117.32533 38928 ft 500 kts 46°
2026-05-04 10:43 16.60598 117.36973 38925 ft 501 kts 46°
2026-05-04 10:45 16.79475 117.58381 38924 ft 502 kts 46°
2026-05-04 10:45 16.84192 117.63741 38924 ft 502 kts 46°
2026-05-04 10:46 16.88911 117.69106 38923 ft 501 kts 46°
2026-05-04 10:46 16.93624 117.74470 38922 ft 501 kts 46°
2026-05-04 10:47 16.98294 117.79790 38926 ft 501 kts 46°
2026-05-04 10:47 17.03036 117.85195 38921 ft 500 kts 46°
2026-05-04 10:49 17.21823 118.06651 38931 ft 502 kts 46°
2026-05-04 10:50 17.26532 118.12042 38926 ft 502 kts 46°
2026-05-04 10:52 17.45368 118.33643 38923 ft 503 kts 46°
2026-05-04 10:52 17.50078 118.39055 38929 ft 503 kts 46°
2026-05-04 10:54 17.68906 118.60738 38920 ft 503 kts 46°
2026-05-04 10:56 17.87752 118.82515 38922 ft 505 kts 46°
2026-05-04 10:57 17.92473 118.87983 38921 ft 505 kts 46°
2026-05-04 10:57 17.97191 118.93451 38922 ft 505 kts 46°
2026-05-04 10:58 18.01912 118.98925 38923 ft 505 kts 46°
2026-05-04 10:58 18.06633 119.04398 38920 ft 505 kts 46°
2026-05-04 10:59 18.11351 119.09872 38922 ft 505 kts 46°
2026-05-04 10:59 18.16064 119.15348 38919 ft 505 kts 46°
2026-05-04 11:00 18.20770 119.20821 38923 ft 505 kts 46°
2026-05-04 11:02 18.39536 119.42692 38924 ft 503 kts 46°
2026-05-04 11:05 18.79960 119.75466 38942 ft 493 kts 20°
2026-05-04 11:06 18.86286 119.78282 38949 ft 494 kts 20°
2026-05-04 11:06 18.92620 119.81131 38937 ft 495 kts 20°
2026-05-04 11:10 19.37048 120.01191 38946 ft 497 kts 20°
2026-05-04 11:12 19.62423 120.12698 38965 ft 497 kts 20°
2026-05-04 11:12 19.68775 120.15585 38959 ft 496 kts 20°
2026-05-04 11:13 19.75118 120.18470 38959 ft 496 kts 20°
2026-05-04 11:13 19.81468 120.21361 38969 ft 496 kts 20°
2026-05-04 11:16 20.13173 120.35832 38985 ft 497 kts 20°
2026-05-04 11:16 20.19532 120.38742 38983 ft 498 kts 20°
2026-05-04 11:17 20.25852 120.41637 38988 ft 498 kts 20°
2026-05-04 11:19 20.51306 120.53323 38995 ft 498 kts 20°
2026-05-04 11:19 20.57665 120.56249 38996 ft 498 kts 20°
2026-05-04 11:20 20.64030 120.59180 39000 ft 498 kts 20°
2026-05-04 11:20 20.70387 120.62111 39000 ft 498 kts 20°
2026-05-04 11:22 20.95894 120.73839 39005 ft 498 kts 14°
2026-05-04 11:23 20.99230 120.74692 39003 ft 490 kts
2026-05-04 11:23 21.02614 120.74878 39018 ft 484 kts 353°
2026-05-04 11:24 21.21755 120.70260 39018 ft 477 kts 341°
2026-05-04 11:25 21.24975 120.69432 39018 ft 478 kts 341°
2026-05-04 11:25 21.31456 120.67780 39037 ft 478 kts 341°
2026-05-04 11:27 21.60544 120.60339 39036 ft 477 kts 341°
2026-05-04 11:28 21.66982 120.58697 39025 ft 477 kts 341°
2026-05-04 11:28 21.73417 120.57051 39024 ft 476 kts 341°
2026-05-04 11:29 21.79860 120.55401 39030 ft 476 kts 341°
2026-05-04 11:29 21.85177 120.54031 39029 ft 475 kts 341°
2026-05-04 11:33 22.29707 120.42495 38150 ft 455 kts 340°
2026-05-04 11:33 22.32796 120.41690 37543 ft 454 kts 340°
2026-05-04 11:33 22.35863 120.40891 37031 ft 451 kts 340°
2026-05-04 11:34 22.38897 120.40101 36576 ft 447 kts 339°
2026-05-04 11:34 22.41913 120.39316 35963 ft 447 kts 339°
2026-05-04 11:34 22.44964 120.38517 35099 ft 454 kts 339°
2026-05-04 11:34 22.48015 120.37722 34787 ft 448 kts 339°
2026-05-04 11:35 22.51049 120.36932 34309 ft 451 kts 339°
2026-05-04 11:35 22.54132 120.36122 33775 ft 463 kts 339°
2026-05-04 11:35 22.57295 120.35290 33175 ft 470 kts 339°
2026-05-04 11:35 22.60421 120.34475 32614 ft 467 kts 339°
2026-05-04 11:36 22.63605 120.33649 32055 ft 462 kts 339°
2026-05-04 11:36 22.66674 120.32853 31530 ft 458 kts 339°
2026-05-04 11:36 22.69758 120.32049 31001 ft 454 kts 339°
2026-05-04 11:36 22.72820 120.31247 30480 ft 451 kts 339°
2026-05-04 11:37 22.75862 120.30449 29935 ft 448 kts 340°
2026-05-04 11:37 22.78878 120.29659 29360 ft 444 kts 340°
2026-05-04 11:37 22.81867 120.28876 29117 ft 446 kts 339°
2026-05-04 11:37 22.84906 120.28078 28637 ft 449 kts 339°
2026-05-04 11:38 22.87927 120.27291 28259 ft 442 kts 339°
2026-05-04 11:38 22.90879 120.26526 27935 ft 435 kts 339°
2026-05-04 11:38 22.93801 120.25767 27616 ft 428 kts 339°
2026-05-04 11:38 22.96688 120.25012 27316 ft 424 kts 339°
2026-05-04 11:39 22.99528 120.24266 27011 ft 422 kts 339°
2026-05-04 11:39 23.02380 120.23517 26721 ft 422 kts 339°
2026-05-04 11:40 23.19904 120.21192 24897 ft 435 kts
2026-05-04 11:41 23.22902 120.21619 24578 ft 434 kts
2026-05-04 11:41 23.25896 120.22030 24270 ft 433 kts
2026-05-04 11:41 23.28872 120.22556 23943 ft 436 kts
2026-05-04 11:41 23.31821 120.23340 23617 ft 436 kts
2026-05-04 11:42 23.34746 120.24167 23256 ft 434 kts
2026-05-04 11:42 23.37597 120.24988 22960 ft 430 kts
2026-05-04 11:42 23.40460 120.25815 22622 ft 423 kts
2026-05-04 11:42 23.43249 120.26612 22312 ft 417 kts
2026-05-04 11:43 23.46049 120.27401 22006 ft 413 kts
2026-05-04 11:43 23.48856 120.28181 21701 ft 410 kts
2026-05-04 11:43 23.51576 120.28932 21416 ft 407 kts
2026-05-04 11:43 23.54358 120.29698 21135 ft 406 kts
2026-05-04 11:44 23.57092 120.30451 20863 ft 405 kts
2026-05-04 11:44 23.59823 120.31202 20565 ft 405 kts
2026-05-04 11:44 23.62550 120.31952 20285 ft 405 kts
2026-05-04 11:44 23.65284 120.32705 19992 ft 406 kts
2026-05-04 11:45 23.67992 120.33452 19694 ft 406 kts
2026-05-04 11:45 23.70718 120.34204 19405 ft 406 kts
2026-05-04 11:45 23.73459 120.34962 19107 ft 406 kts
2026-05-04 11:45 23.76191 120.35720 18810 ft 405 kts
2026-05-04 11:46 23.78917 120.36476 18512 ft 404 kts
2026-05-04 11:46 23.81628 120.37227 18216 ft 402 kts
2026-05-04 11:46 23.84333 120.37977 17897 ft 399 kts
2026-05-04 11:46 23.87012 120.38721 17596 ft 396 kts
2026-05-04 11:47 23.89674 120.39461 17324 ft 393 kts
2026-05-04 11:47 23.92304 120.40192 17093 ft 387 kts
2026-05-04 11:47 23.94902 120.40913 17049 ft 383 kts
2026-05-04 11:47 23.97494 120.41630 17049 ft 386 kts
2026-05-04 11:48 24.00114 120.42355 17042 ft 388 kts
2026-05-04 11:48 24.02715 120.43127 16741 ft 390 kts 13°
2026-05-04 11:48 24.05230 120.44243 16339 ft 392 kts 20°
2026-05-04 11:48 24.07605 120.45687 15954 ft 390 kts 27°
2026-05-04 11:49 24.09912 120.47224 15539 ft 386 kts 27°
2026-05-04 11:49 24.12191 120.48743 15100 ft 383 kts 27°
2026-05-04 11:49 24.14467 120.50256 14684 ft 380 kts 27°
2026-05-04 11:49 24.16723 120.51752 14190 ft 380 kts 26°
2026-05-04 11:50 24.18989 120.53251 13724 ft 379 kts 26°
2026-05-04 11:50 24.21240 120.54739 13280 ft 375 kts 27°
2026-05-04 11:50 24.23455 120.56202 12876 ft 370 kts 27°
2026-05-04 11:50 24.25651 120.57653 12493 ft 366 kts 27°
2026-05-04 11:51 24.27821 120.59087 12115 ft 363 kts 27°
2026-05-04 11:51 24.29971 120.60503 11795 ft 360 kts 27°
2026-05-04 11:51 24.32106 120.61915 11508 ft 356 kts 28°
2026-05-04 11:51 24.34209 120.63306 11238 ft 352 kts 28°
2026-05-04 11:52 24.36295 120.64681 10975 ft 350 kts 28°
2026-05-04 11:52 24.38344 120.66039 10743 ft 346 kts 27°
2026-05-04 11:52 24.40410 120.67403 10440 ft 338 kts 27°
2026-05-04 11:52 24.42369 120.68697 10196 ft 329 kts 28°
2026-05-04 11:53 24.44310 120.69987 9938 ft 322 kts 27°
2026-05-04 11:53 24.46210 120.71251 9666 ft 317 kts 27°
2026-05-04 11:53 24.48074 120.72490 9408 ft 309 kts 27°
2026-05-04 11:53 24.49901 120.73701 9199 ft 304 kts 28°
2026-05-04 11:55 24.62445 120.82023 7607 ft 298 kts 28°
2026-05-04 11:55 24.64208 120.83195 7394 ft 295 kts 28°
2026-05-04 11:56 24.65952 120.84356 7180 ft 292 kts 28°
2026-05-04 11:56 24.67681 120.85506 6957 ft 289 kts 28°
2026-05-04 11:56 24.69394 120.86643 6733 ft 287 kts 28°
2026-05-04 11:56 24.71099 120.87777 6515 ft 288 kts 28°
2026-05-04 11:57 24.72811 120.88913 6305 ft 287 kts 29°
2026-05-04 11:57 24.74522 120.90049 6069 ft 285 kts 30°
2026-05-04 11:57 24.76199 120.91172 5839 ft 279 kts 29°
2026-05-04 11:57 24.77852 120.92274 5631 ft 277 kts 30°
2026-05-04 11:58 24.79500 120.93371 5420 ft 278 kts 29°
2026-05-04 11:58 24.81152 120.94470 5225 ft 277 kts 30°
2026-05-04 11:58 24.82797 120.95568 5021 ft 275 kts 31°
2026-05-04 11:58 24.84405 120.96647 4812 ft 273 kts 30°
2026-05-04 11:59 24.86002 120.97713 4615 ft 265 kts 30°
2026-05-04 11:59 24.87562 120.98750 4417 ft 258 kts 31°
2026-05-04 11:59 24.89078 120.99760 4209 ft 251 kts 31°
2026-05-04 11:59 24.90535 121.00742 4061 ft 236 kts 35°
2026-05-04 12:00 24.91719 121.01892 3876 ft 222 kts 49°
2026-05-04 12:00 24.92720 121.03135 3762 ft 208 kts 51°
2026-05-04 12:00 24.93637 121.04306 3679 ft 200 kts 51°
2026-05-04 12:00 24.94542 121.05458 3566 ft 198 kts 51°
2026-05-04 12:01 24.95441 121.06600 3447 ft 196 kts 51°
2026-05-04 12:01 24.96326 121.07719 3320 ft 190 kts 52°
2026-05-04 12:02 25.01044 121.13693 2024 ft 156 kts 53°
2026-05-04 12:03 25.01719 121.14546 1823 ft 139 kts 53°
2026-05-04 12:03 25.02313 121.15300 1663 ft 128 kts 53°
2026-05-04 12:03 25.02886 121.16025 1474 ft 120 kts 54°
2026-05-04 12:03 25.03425 121.16711 1334 ft 119 kts 53°
2026-05-04 12:04 25.03969 121.17400 1162 ft 122 kts 52°
2026-05-04 12:04 25.04497 121.18066 1026 ft 122 kts 53°
2026-05-04 12:04 25.04968 121.18665 859 ft 119 kts 53°
2026-05-04 12:04 25.05446 121.19271 713 ft 117 kts 52°
2026-05-04 12:05 25.05939 121.19892 567 ft 120 kts 50°
2026-05-04 12:05 25.06439 121.20524 425 ft 122 kts 53°
2026-05-04 12:05 25.06972 121.21202 242 ft 122 kts 52°
2026-05-04 12:05 25.07533 121.21907 108 ft 118 kts 53°
2026-05-04 12:06 25.07998 121.22497 107 ft 82 kts 49°
2026-05-04 12:06 25.08268 121.22845 107 ft 38 kts 49°
2026-05-04 12:06 25.08379 121.22994 106 ft 22 kts 58°
2026-05-04 12:06 25.08434 121.23143 107 ft 19 kts 76°
2026-05-04 12:07 25.08458 121.23275 106 ft 17 kts 80°
2026-05-04 12:07 25.08481 121.23398 106 ft 16 kts 72°
2026-05-04 12:07 25.08535 121.23504 109 ft 16 kts 52°
2026-05-04 12:07 25.08609 121.23599 106 ft 16 kts 49°
2026-05-04 12:08 25.08682 121.23692 104 ft 16 kts 49°
2026-05-04 12:08 25.08756 121.23786 107 ft 17 kts 49°
2026-05-04 12:08 25.08830 121.23880 106 ft 12 kts 49°
2026-05-04 12:08 25.08834 121.23943 106 ft 9 kts 127°
2026-05-04 12:09 25.08790 121.23992 108 ft 7 kts 139°
2026-05-04 12:09 25.08781 121.24001 105 ft 1 kts 139°
2026-05-04 12:09 25.08776 121.24005 105 ft 0 kts 139°